Home   Weather   Pierre   Past weeks

Flag for USA Past Weather in Pierre, South Dakota, USA — Yesterday and Last 2 Weeks

Now
23 °F

Mostly cloudy.


Feels Like: 14 °F
Forecast: 17 / 36 °F
Wind: 8 mph from South

Location: Pierre Regional Airport

Current Time: Feb 25, 2017 at 5:52:12 am

Latest Report: Feb 25, 2017 at 4:53 am


Visibility: 10 mi

Pressure: 30.08 "Hg

Humidity: 68%

Dew Point: 14 °F

Location of PierreLocation

Past Weather in Pierre — Graph

°F

Pierre Temperature Yesterday

Maximum temperature yesterday: 30 °F (at 1:53 pm)
Minimum temperature yesterday: 19 °F (at 8:53 pm)
Average temperature yesterday: 24 °F

High & Low Weather Summary for the Past Weeks

 TemperatureHumidityPressure
High69 °F (Feb 21, 2:53 pm)93% (Feb 11, 2:53 pm)30.50 "Hg (Feb 11, 2:53 pm)
Low19 °F (Feb 24, 8:53 pm)27% (Feb 21, 1:53 pm)29.38 "Hg (Feb 17, 3:53 am)
Average39 °F68%29.88 "Hg
* Reported Feb 10 3:53 am — Feb 25 3:53 am, Pierre, Weather by CustomWeather, © 2017

Note: Actual official high and low records may vary slightly from our data, if they occured in-between our weather recording intervals... More about our weather records

Advertising

Pierre Weather History for the Previous 24 Hours

Scroll right to see more
 ConditionsComfort  
Time TempWeatherWind HumidityBarometerVisibility
3:53 am
Sat, Feb 25
20 °FOvercast.3 mph82%30.10 "Hg10 mi
2:53 am21 °FOvercast.3 mph78%30.13 "Hg10 mi
1:53 am21 °FOvercast.5 mph81%30.15 "Hg10 mi
12:53 am21 °FOvercast.3 mph74%30.16 "Hg10 mi
11:53 pm
Fri, Feb 24
20 °FOvercast.3 mph74%30.17 "Hg10 mi
10:53 pm20 °FClear.5 mph71%30.19 "Hg10 mi
9:53 pm20 °FClear.3 mph71%30.20 "Hg10 mi
8:53 pm19 °FClear.6 mph74%30.21 "Hg10 mi
7:53 pm20 °FClear.7 mph71%30.21 "Hg10 mi
6:53 pm24 °FClear.7 mph60%30.19 "Hg10 mi
5:53 pm28 °FPassing clouds.10 mph51%30.17 "Hg10 mi
4:53 pm30 °FOvercast.18 mph51%30.16 "Hg10 mi
3:53 pm30 °FOvercast.18 mph51%30.16 "Hg10 mi
2:53 pm30 °FOvercast.20 mph49%30.14 "Hg10 mi
1:53 pm30 °FOvercast.18 mph49%30.14 "Hg10 mi
12:53 pm29 °FOvercast.14 mph51%30.15 "Hg10 mi
11:53 am28 °FOvercast.14 mph51%30.16 "Hg10 mi
10:53 am26 °FPassing clouds.10 mph57%30.17 "Hg10 mi
9:53 am23 °FPartly sunny.9 mph72%30.19 "Hg10 mi
8:53 am21 °FSunny.12 mph78%30.17 "Hg10 mi
7:53 am20 °FSunny.12 mph78%30.16 "Hg10 mi
6:53 am20 °FClear.15 mph78%30.14 "Hg10 mi
5:53 am21 °FOvercast.16 mph74%30.12 "Hg10 mi
Weather by CustomWeather, © 2017

See weather overviewHow to use our weather pages